This is the latest recevied weather packets stored in our database for station/object KA9CBS. If no packets are shown the sender has not sent any weather packets the latest 1 day(s).
| Time | Temp. | Humidity | Pressure | Rain* | Wind** | Luminosity | Snow |
|---|---|---|---|---|---|---|---|
| 1778075058 | 8.89° C | 98% | 1016.2 hPa | 0 mm | - | 62 W/m² | - |
| 1778074755 | 8.89° C | 98% | 1016.3 hPa | 0 mm | - | 56 W/m² | - |
| 1778072633 | 8.89° C | 99% | 1015.6 hPa | 0 mm | - | 79 W/m² | - |
| 1778072331 | 8.89° C | 99% | 1015.8 hPa | 0 mm | - | 83 W/m² | - |
| 1778070820 | 8.33° C | 99% | 1015.7 hPa | 0 mm | - | 55 W/m² | - |
| 1778069912 | 8.33° C | 99% | 1016.1 hPa | 0 mm | - | 35 W/m² | - |
| 1778067794 | 7.78° C | 99% | 1014.9 hPa | 0 mm | - | 15 W/m² | - |
| 1778066886 | 7.78° C | 99% | 1014.3 hPa | 0 mm | - | 9 W/m² | - |
| 1778065373 | 7.78° C | 99% | 1014.4 hPa | 0 mm | - | 3 W/m² | - |
| 1778065069 | 7.78° C | 99% | 1014.6 hPa | 0 mm | - | 1 W/m² | - |
| 1778064766 | 7.78° C | 99% | 1014.9 hPa | 0 mm | - | 0 W/m² | - |
| 1778064464 | 7.78° C | 99% | 1014.7 hPa | 0 mm | - | 0 W/m² | - |
| 1778062951 | 7.78° C | 99% | 1014.2 hPa | 0 mm | - | 0 W/m² | - |
| 1778062648 | 7.78° C | 99% | 1014.5 hPa | 0 mm | - | 0 W/m² | - |
| 1778061740 | 7.78° C | 99% | 1014.2 hPa | 0 mm | - | 0 W/m² | - |
| 1778061135 | 7.78° C | 99% | 1014.1 hPa | 0 mm | - | 0 W/m² | - |
| 1778060832 | 7.78° C | 99% | 1013.6 hPa | 0 mm | - | 0 W/m² | - |
| 1778060530 | 7.78° C | 99% | 1013.6 hPa | 0 mm | - | 0 W/m² | - |
| 1778060229 | 7.78° C | 99% | 1013.5 hPa | 0 mm | - | 0 W/m² | - |
| 1778059925 | 7.78° C | 99% | 1013.5 hPa | 0 mm | - | 0 W/m² | - |
| 1778059623 | 7.78° C | 99% | 1013 hPa | 0 mm | - | 0 W/m² | - |
| 1778059320 | 7.78° C | 99% | 1013.4 hPa | 0 mm | - | 0 W/m² | - |
| 1778059018 | 7.78° C | 99% | 1013.7 hPa | 0 mm | - | 0 W/m² | - |
| 1778058715 | 7.78° C | 99% | 1013.8 hPa | 0 mm | - | 0 W/m² | - |
| 1778058413 | 7.78° C | 99% | 1013.7 hPa | 0 mm | - | 0 W/m² | - |
* Rain latest hour (hover to see other rain measurements)
** Current wind speed in m/s (hover to see current wind gust speed)